Kolkata, India

5:34 PM IST on June 27, 2017 (GMT +0530)
Netaji Subhash Chandra Bose International

Weather History for VECC - February, 2014

Change the Weather History Date:

Sunday, February 23, 2014

  Actual Average Record
Temperature  
Mean Temperature 76 °F -  
Max Temperature 86 °F 85 °F 95 °F (2006)
Min Temperature 65 °F 64 °F 59 °F (1997)
Cooling Degree Days 10    
Growing Degree Days 26 (Base 50)    
Moisture  
Dew Point 62 °F    
Average Humidity 67    
Maximum Humidity 88    
Minimum Humidity 35    
Precipitation  
Precipitation 0.00 in - - ()
Sea Level Pressure  
Sea Level Pressure 29.99 in    
Wind  
Wind Speed 4 mph ()    
Max Wind Speed 14 mph    
Max Gust Speed -    
Visibility 1.2 miles    
Events Fog    
Averages and records for this station are not official NWS values.
T = Trace of Precipitation, MM = Missing Value Source: Averaged Metar Reports

Daily Weather History Graph

Daily Weather History Graph

Search for Another Location

Airport or City:

Trip Planner

Search our weather history database for the weather conditions in past years. The results will help you decide how hot, cold, wet, or windy it might be!

Date:

Astronomy

Feb. 23, 2014 Rise Set
Actual Time 6:02 AM IST 5:36 PM IST
Civil Twilight 5:40 AM IST 5:59 PM IST
Nautical Twilight 5:13 AM IST 6:25 PM IST
Astronomical Twilight 4:47 AM IST 6:51 PM IST
Moon No Moon Rise 11:32 AM IST (2/23)
Length of Visible Light 12h 19m
Length of Day
11h 34m
Last Quarter, 44% of the Moon is Illuminated
Feb 23
Last Quarter
Mar 1
New
Mar 8
First Quarter
Mar 16
Full
Mar 24
Last Quarter

Hourly Weather History & Observations

Time (IST) Temp. Heat Index Dew Point Humidity Pressure Visibility Wind Dir Wind Speed Gust Speed Precip Events Conditions
12:20 AM 69.8 °F - 64.4 °F 83% 29.98 in 1.1 mi NNW 4.6 mph - N/A   Mist
12:50 AM 71.6 °F - 64.4 °F 78% 29.98 in 1.1 mi WSW 4.6 mph - N/A   Mist
1:20 AM 69.8 °F - 64.4 °F 83% 29.95 in 1.1 mi Calm Calm - N/A   Mist
1:50 AM 69.8 °F - 64.4 °F 83% 29.95 in 1.1 mi Calm Calm - N/A   Mist
2:20 AM 69.8 °F - 64.4 °F 83% 29.95 in 1.0 mi NW 4.6 mph - N/A   Mist
2:30 AM 68 °F - 62 °F 76% 29.97 in 1 mi North 2.3 mph - -   Haze
2:50 AM 69.8 °F - 64.4 °F 83% 29.98 in 0.9 mi NNW 3.5 mph - N/A   Mist
3:20 AM 68.0 °F - 62.6 °F 83% 29.95 in 0.9 mi North 3.5 mph - N/A   Mist
3:50 AM 66.2 °F - 62.6 °F 88% 29.95 in 0.9 mi North 5.8 mph - N/A   Mist
4:20 AM 66.2 °F - 62.6 °F 88% 29.95 in 0.9 mi North 4.6 mph - N/A   Mist
4:50 AM 64.4 °F - 60.8 °F 88% 29.95 in 0.9 mi North 5.8 mph - N/A   Mist
5:20 AM 64.4 °F - 60.8 °F 88% 29.98 in 0.9 mi North 5.8 mph - N/A   Mist
5:30 AM 67 °F - 60 °F 70% 30.01 in 1 mi North 1.2 mph - -   Haze
5:50 AM 64.4 °F - 60.8 °F 88% 30.01 in 0.7 mi North 6.9 mph - N/A   Mist
6:20 AM 64.4 °F - 60.8 °F 88% 30.04 in 0.6 mi North 6.9 mph - N/A Fog Shallow Fog
7:20 AM 66.2 °F - 62.6 °F 88% 30.04 in 0.5 mi North 5.8 mph - N/A Fog Fog
7:50 AM 68.0 °F - 62.6 °F 83% 30.04 in 0.7 mi NNE 4.6 mph - N/A   Mist
8:20 AM 69.8 °F - 62.6 °F 78% 30.06 in 0.9 mi NNE 8.1 mph - N/A   Mist
8:30 AM 72 °F - 60 °F 58% 30.07 in 1 mi NE 3.5 mph - -   Haze
8:50 AM 71.6 °F - 62.6 °F 73% 30.06 in 1.2 mi NNE 8.1 mph - N/A   Haze
9:20 AM 75.2 °F - 60.8 °F 61% 30.06 in 1.4 mi ENE 5.8 mph - N/A   Haze
9:50 AM 77.0 °F - 60.8 °F 57% 30.06 in 1.4 mi ENE 5.8 mph - N/A   Haze
10:20 AM 78.8 °F - 60.8 °F 54% 30.04 in 1.5 mi East 5.8 mph - N/A   Haze
10:50 AM 80.6 °F 81.1 °F 59.0 °F 48% 30.04 in 1.6 mi East 5.8 mph - N/A   Haze
11:20 AM 80.6 °F 81.1 °F 59.0 °F 48% 30.01 in 1.6 mi East 4.6 mph - N/A   Haze
11:30 AM 81 °F - 64 °F 48% 30.03 in 1 mi ESE 2.3 mph - -   Haze
11:50 AM 82.4 °F 82.5 °F 59.0 °F 45% 30.01 in 1.7 mi East 5.8 mph - N/A   Haze
12:20 PM 82.4 °F 82.5 °F 59.0 °F 45% 30.01 in 1.9 mi East 5.8 mph - N/A   Haze
12:50 PM 82.4 °F 82.5 °F 59.0 °F 45% 29.98 in - East 5.8 mph - N/A   Haze
1:20 PM 84.2 °F 83.8 °F 59.0 °F 42% 29.98 in - SSE 5.8 mph - N/A   Haze
1:50 PM 84.2 °F 84.4 °F 60.8 °F 45% 29.95 in - SSE 5.8 mph - N/A   Haze
2:20 PM 84.2 °F 84.4 °F 60.8 °F 45% 29.95 in - SSE 4.6 mph - N/A   Haze
2:30 PM 85 °F - 61 °F 35% 29.96 in 1 mi Calm Calm - -   Haze
2:50 PM 84.2 °F 84.4 °F 60.8 °F 45% 29.95 in - SSE 8.1 mph - N/A   Haze
3:20 PM 82.4 °F 82.9 °F 60.8 °F 48% 29.95 in - SSE 8.1 mph - N/A   Haze
3:50 PM 82.4 °F 82.9 °F 60.8 °F 48% 29.95 in - SSE 8.1 mph - N/A   Haze
4:20 PM 80.6 °F 81.8 °F 62.6 °F 54% 29.95 in - SSE 13.8 mph - N/A   Haze
4:50 PM 78.8 °F - 64.4 °F 61% 29.95 in - NNE 9.2 mph - N/A   Haze
5:20 PM 77.0 °F - 64.4 °F 65% 29.95 in 1.7 mi NNE 8.1 mph - N/A   Haze
5:30 PM 79 °F - 65 °F 52% 29.98 in 1 mi NW 3.5 mph - -   Haze
5:50 PM 77.0 °F - 64.4 °F 65% 29.95 in 1.7 mi North 5.8 mph - N/A   Haze
6:20 PM 75.2 °F - 64.4 °F 69% 29.98 in 1.7 mi North 5.8 mph - N/A   Haze
6:50 PM 75.2 °F - 64.4 °F 69% 29.98 in 1.7 mi North 5.8 mph - N/A   Haze
7:20 PM 73.4 °F - 62.6 °F 69% 29.98 in 1.7 mi NE 4.6 mph - N/A   Haze
7:50 PM 73.4 °F - 62.6 °F 69% 29.98 in 1.7 mi Calm Calm - N/A   Haze
8:20 PM 73.4 °F - 62.6 °F 69% 30.01 in 1.6 mi Calm Calm - N/A   Haze
8:30 PM 73 °F - 65 °F 69% 30.01 in 1 mi Calm Calm - -   Haze
8:50 PM 73.4 °F - 62.6 °F 69% 30.01 in 1.6 mi Calm Calm - N/A   Haze
9:20 PM 71.6 °F - 62.6 °F 73% 30.01 in 1.6 mi Calm Calm - N/A   Haze
9:50 PM 69.8 °F - 62.6 °F 78% 30.01 in 1.6 mi Calm Calm - N/A   Partly Cloudy
10:20 PM 69.8 °F - 62.6 °F 78% 29.98 in 1.6 mi Calm Calm - N/A   Partly Cloudy
10:50 PM 69.8 °F - 62.6 °F 78% 29.98 in 1.6 mi SSE 3.5 mph - N/A   Partly Cloudy
11:20 PM 69.8 °F - 62.6 °F 78% 29.98 in 1.6 mi Calm Calm - N/A   Partly Cloudy
11:30 PM 72 °F - 64 °F 69% 30.00 in 1 mi Calm Calm - -   Haze
11:50 PM 71.6 °F - 64.4 °F 78% 29.98 in 1.6 mi Calm Calm - N/A   Partly Cloudy